Hoquiam, WA
on Monday, December 10, 2012

Monday
Previous Day Next Day
Daily Summary
 ActualAverageRecord
Temperature
Mean Temperature °F 42°F  
Max Temperature 50°F 46°F 58°F (1957)
Min Temperature 39°F 37°F 15°F (1972)
Degree Days
Heating Degree Days 20 23  
Month to date heating degree days 228  
Cooling Degree Days 0 0  
Month to date cooling degree days 0  
Year to date cooling degree days 23  
Moisture
Dew Point 43°F   
Average Humidity 94    
Maximum Humidity 100    
Minimum Humidity 80    
Precipitation
Precipitation 0.00 in 0.31 in 1.77 in (1955)
Month to date precipitation 3.32  
Year to date precipitation 60.91  
Wind
Wind Speed 2 mph   
Max Wind Speed 9 mph   
Max Gust Speed mph   
Visibility 7 miles   
Events     

Key: T is trace of precipitation, MM is missing value
Source: NWS Daily Summary
Time(PST)TemperatureDew PointHumidity Pressure Visibility Wind DirectionWind SpeedGust SpeedPrecipitationEvents Conditions
12:28 AM 44.6°F 44.6°F 100% 30.36 in 2.0 miles Calm Calm - N/A   Overcast
12:41 AM 44.6°F 44.6°F 100% 30.36 in 1.8 miles Calm Calm - N/A   Overcast
12:48 AM 44.6°F 44.6°F 100% 30.36 in 2.5 miles Calm Calm - N/A   Overcast
12:53 AM 45.0°F 45.0°F 100% 30.38 in 2.0 miles NNE 3.5 mph - N/A   Overcast
1:01 AM 44.6°F 44.6°F 100% 30.36 in 1.8 miles Calm Calm - N/A   Overcast
1:09 AM 44.6°F 44.6°F 100% 30.36 in 3.0 miles Calm Calm - N/A   Overcast
1:43 AM 44.6°F 44.6°F 100% 30.38 in 4.0 miles Calm Calm - N/A   Overcast
1:53 AM 44.1°F 44.1°F 100% 30.39 in 4.0 miles Calm Calm - N/A   Overcast
2:53 AM 44.1°F 43.0°F 96% 30.41 in 3.0 miles Calm Calm - N/A   Overcast
3:53 AM 45.0°F 43.0°F 93% 30.41 in 10.0 miles WNW 6.9 mph - N/A   Overcast
4:53 AM 45.0°F 43.0°F 93% 30.43 in 10.0 miles Calm Calm - N/A   Overcast
5:53 AM 44.1°F 42.1°F 93% 30.43 in 10.0 miles Calm Calm - N/A   Overcast
6:42 AM 42.8°F 42.8°F 100% 30.43 in 10.0 miles West 3.5 mph - N/A   Scattered Clouds
6:53 AM 44.1°F 42.1°F 93% 30.44 in 10.0 miles West 3.5 mph - N/A   Partly Cloudy
7:53 AM 42.1°F 42.1°F 100% 30.44 in 10.0 miles Calm Calm - N/A   Clear
8:05 AM 39.2°F 39.2°F 100% 30.43 in 1.8 miles Calm Calm - N/A   Clear
8:15 AM 39.2°F 39.2°F 100% 30.43 in 3.0 miles Calm Calm - N/A   Clear
8:31 AM 42.8°F 42.8°F 100% 30.42 in 10.0 miles Calm Calm - N/A   Mostly Cloudy
8:53 AM 43.0°F 42.1°F 97% 30.43 in 10.0 miles Calm Calm - N/A   Overcast
9:42 AM 44.6°F 42.8°F 93% 30.42 in 10.0 miles SE 3.5 mph - N/A   Overcast
9:53 AM 44.1°F 43.0°F 96% 30.44 in 10.0 miles Calm Calm - N/A   Overcast
10:53 AM 45.0°F 43.0°F 93% 30.45 in 10.0 miles Calm Calm - N/A   Overcast
11:53 AM 46.9°F 44.1°F 90% 30.41 in 10.0 miles West 3.5 mph - N/A   Overcast
12:53 PM 48.9°F 46.0°F 90% 30.40 in 10.0 miles SW 9.2 mph - N/A   Mostly Cloudy
1:00 PM 48.2°F 44.6°F 87% 30.38 in 10.0 miles WSW 9.2 mph - N/A   Scattered Clouds
1:53 PM 50.0°F 44.1°F 80% 30.38 in 10.0 miles WSW 8.1 mph - N/A   Mostly Cloudy
2:53 PM 48.9°F 44.1°F 83% 30.37 in 10.0 miles West 8.1 mph - N/A   Mostly Cloudy
3:53 PM 48.0°F 43.0°F 83% 30.35 in 10.0 miles West 5.8 mph - N/A   Overcast
4:53 PM 48.0°F 43.0°F 83% 30.34 in 10.0 miles West 3.5 mph - N/A   Overcast
5:53 PM 45.0°F 43.0°F 93% 30.31 in 10.0 miles Calm Calm - N/A   Scattered Clouds
6:53 PM 44.1°F 42.1°F 93% 30.28 in 10.0 miles Calm Calm - N/A   Clear
7:53 PM 43.0°F 42.1°F 97% 30.26 in 8.0 miles Calm Calm - N/A   Clear
8:53 PM 42.1°F 39.9°F 92% 30.23 in 8.0 miles Calm Calm - N/A   Clear
9:38 PM 39.2°F 37.4°F 93% 30.19 in 7.0 miles Calm Calm - N/A   Mostly Cloudy
9:53 PM 39.9°F 39.0°F 97% 30.18 in 4.0 miles ENE 4.6 mph - N/A   Overcast
10:53 PM 42.1°F 39.9°F 92% 30.16 in 6.0 miles Calm Calm - N/A   Overcast
11:53 PM 41.0°F 39.9°F 96% 30.12 in 5.0 miles ENE 5.8 mph - N/A   Overcast
Moon Phase
Dec. 10 Dec. 13 Dec. 20 Dec. 28 Jan. 04
Sunrise:07:50 AM (PST) Moon Rise:04:34 AM (PST)12/10
Sunset:04:26 PM (PST) Moon Set:02:26 PM (PST)12/10

Copyright © 2014 The Weather Underground, Inc.